K9UO Weather Reports


time (UTC)temp
F
wind
direction
speed
knots
gust
knots
rain 1hr
in
rain 24hr
in
rain mn
in
humidity
%
barometer
mb
20260831232011 84 194 0.0 1.7 0.00 0.00 0.00 68 1017.1
20260831231517 85 194 0.0 1.7 0.00 0.00 0.00 67 1016.9
20260831231009 85 194 0.0 3.5 0.00 0.00 0.00 67 1016.8
20260831230510 85 186 0.9 2.6 0.00 0.00 0.00 66 1016.8
20260831230019 86 213 0.9 3.5 0.00 0.00 0.00 66 1016.7
20260831225512 86 203 1.7 3.5 0.00 0.00 0.00 65 1016.6
20260831225010 86 198 0.9 3.5 0.00 0.00 0.00 65 1016.4
20260831224520 86 203 1.7 3.5 0.00 0.00 0.00 64 1016.4
20260831224008 86 182 1.7 6.1 0.00 0.00 0.00 64 1016.5
20260831223509 86 205 1.7 6.1 0.00 0.00 0.00 64 1016.6
20260831223018 87 213 2.6 4.3 0.00 0.00 0.00 63 1016.7
20260831222510 87 198 1.7 4.3 0.00 0.00 0.00 63 1016.6
20260831222011 88 225 0.9 3.5 0.00 0.00 0.00 63 1016.6
20260831221517 88 211 1.7 7.0 0.00 0.00 0.00 62 1016.5
20260831221012 88 213 1.7 7.0 0.00 0.00 0.00 63 1016.6
20260831220512 88 203 2.6 5.2 0.00 0.00 0.00 60 1016.6
20260831220022 88 184 2.6 7.0 0.00 0.00 0.00 61 1016.5
20260831215508 88 221 3.5 7.0 0.00 0.00 0.00 60 1016.4
20260831215009 88 201 3.5 6.1 0.00 0.00 0.00 60 1016.5
20260831214524 88 225 2.6 7.0 0.00 0.00 0.00 61 1016.5
20260831214009 88 219 2.6 7.0 0.00 0.00 0.00 61 1016.7
20260831213510 88 219 2.6 8.7 0.00 0.00 0.00 59 1016.7
20260831213022 89 197 1.7 8.7 0.00 0.00 0.00 58 1016.6
20260831212510 89 217 2.6 7.8 0.00 0.00 0.00 58 1016.6
20260831212010 89 209 4.3 7.8 0.00 0.00 0.00 57 1016.6
20260831211521 89 169 3.5 7.8 0.00 0.00 0.00 56 1016.5
20260831211007 89 205 3.5 8.7 0.00 0.00 0.00 58 1016.5
20260831210509 90 215 2.6 9.6 0.00 0.00 0.00 58 1016.5
20260831210020 89 200 3.5 9.6 0.00 0.00 0.00 59 1016.5
20260831205511 89 195 4.3 8.7 0.00 0.00 0.00 57 1016.5
20260831205013 89 209 2.6 7.8 0.00 0.00 0.00 62 1016.5
20260831204517 89 198 4.3 8.7 0.00 0.00 0.00 60 1016.7
20260831204011 89 203 5.2 8.7 0.00 0.00 0.00 59 1016.6
20260831203509 88 200 2.6 6.1 0.00 0.00 0.00 62 1016.6
20260831203027 87 244 3.5 7.0 0.00 0.00 0.00 64 1016.6
20260831202503 88 199 3.5 10.4 0.00 0.00 0.00 63 1016.4
20260831202003 88 187 4.3 10.4 0.00 0.00 0.00 64 1016.3
20260831201512 87 281 5.2 8.7 0.00 0.00 0.00 65 1016.4
20260831201004 86 190 3.5 8.7 0.00 0.00 0.00 65 1016.7
20260831200504 86 211 3.5 7.0 0.00 0.00 0.00 66 1016.7
20260831200009 86 242 3.5 6.1 0.00 0.00 0.00 70 1016.7
20260831195507 85 167 1.7 4.3 0.00 0.00 0.00 71 1017.3
20260831195007 84 209 0.9 4.3 0.00 0.00 0.00 71 1017.7
20260831194523 84 211 1.7 6.1 0.00 0.00 0.00 69 1017.8
20260831194009 84 260 1.7 6.1 0.00 0.00 0.00 70 1017.8
20260831193510 84 157 2.6 6.1 0.00 0.00 0.00 71 1017.8
20260831193028 83 227 2.6 6.1 0.00 0.00 0.00 71 1017.9
20260831192514 83 217 2.6 6.1 0.00 0.00 0.00 72 1017.8
20260831192014 83 213 4.3 6.1 0.00 0.00 0.00 70 1017.9
20260831191505 83 223 2.6 4.3 0.00 0.00 0.00 71 1018.0
20260831191008 83 209 2.6 4.3 0.00 0.00 0.00 70 1018.1
20260831190507 83 206 1.7 4.3 0.00 0.00 0.00 71 1018.2
20260831190016 83 200 1.7 4.3 0.00 0.00 0.00 69 1018.2
20260831185506 83 200 2.6 4.3 0.00 0.00 0.00 68 1018.4
20260831185006 83 203 2.6 5.2 0.00 0.00 0.00 67 1018.6
20260831184512 84 215 0.9 6.1 0.00 0.00 0.00 68 1018.7
20260831184010 84 200 3.5 7.0 0.00 0.00 0.00 66 1018.6
20260831183509 85 175 3.5 7.0 0.00 0.00 0.00 64 1018.6
20260831183021 85 231 1.7 4.3 0.00 0.00 0.00 63 1019.0
20260831182511 86 309 1.7 5.2 0.00 0.00 0.00 63 1019.1
20260831182012 86 269 1.7 5.2 0.00 0.00 0.00 64 1019.1
20260831181529 86 204 1.7 7.0 0.00 0.00 0.00 64 1019.1
20260831181013 86 324 1.7 7.0 0.00 0.00 0.00 63 1019.1
20260831180503 85 302 1.7 5.2 0.00 0.00 0.00 61 1019.1
20260831180012 85 194 1.7 5.2 0.00 0.00 0.00 63 1019.2
20260831175505 85 247 2.6 5.2 0.00 0.00 0.00 64 1019.1
20260831175005 85 218 1.7 5.2 0.00 0.00 0.00 69 1019.1
20260831174510 85 214 1.7 6.1 0.00 0.00 0.00 68 1019.1
20260831174006 84 218 1.7 6.1 0.00 0.00 0.00 68 1019.1
20260831173508 84 219 1.7 5.2 0.00 0.00 0.00 67 1019.2
20260831173017 84 292 1.7 5.2 0.00 0.00 0.00 69 1019.3
20260831172510 83 293 1.7 3.5 0.00 0.00 0.00 71 1019.4
20260831172011 83 241 1.7 4.3 0.00 0.00 0.00 71 1019.4
20260831171524 83 200 0.9 4.3 0.00 0.00 0.00 72 1019.5
20260831171013 83 219 2.6 5.2 0.00 0.00 0.00 70 1019.5
20260831170515 83 237 0.9 5.2 0.00 0.00 0.00 70 1019.5
20260831170033 83 232 2.6 7.0 0.00 0.00 0.00 72 1019.5
20260831165503 83 217 2.6 7.0 0.00 0.00 0.00 70 1019.5
20260831165003 83 225 1.7 6.1 0.00 0.00 0.00 74 1019.5
20260831164517 82 235 1.7 6.1 0.00 0.00 0.00 75 1019.5
20260831164002 82 211 1.7 5.2 0.00 0.00 0.00 75 1019.5
20260831163506 82 196 2.6 5.2 0.00 0.00 0.00 74 1019.5
20260831163018 82 200 1.7 5.2 0.00 0.00 0.00 75 1019.3
20260831162513 82 169 2.6 5.2 0.00 0.00 0.00 75 1019.4
20260831162009 82 236 1.7 5.2 0.00 0.00 0.00 75 1019.4
20260831161523 82 252 1.7 6.1 0.00 0.00 0.00 76 1019.4
20260831161010 81 227 2.6 6.1 0.00 0.00 0.00 77 1019.4
20260831160512 81 202 2.6 4.3 0.00 0.00 0.00 77 1019.3
20260831160026 81 210 1.7 4.3 0.00 0.00 0.00 78 1019.4
20260831155516 80 185 1.7 4.3 0.00 0.00 0.00 78 1019.5
20260831155016 80 155 1.7 4.3 0.00 0.00 0.00 77 1019.5
20260831154518 80 210 1.7 5.2 0.00 0.00 0.00 77 1019.4
20260831154002 80 211 2.6 5.2 0.00 0.00 0.00 77 1019.4
20260831153505 80 192 2.6 3.5 0.00 0.00 0.00 78 1019.3
20260831153012 80 202 1.7 4.3 0.00 0.00 0.00 79 1019.4
20260831152509 80 218 1.7 6.1 0.00 0.00 0.00 77 1019.4
20260831152007 80 273 0.9 6.1 0.00 0.00 0.00 76 1019.4
20260831151520 80 199 2.6 5.2 0.00 0.00 0.00 76 1019.3
20260831151009 80 185 3.5 5.2 0.00 0.00 0.00 75 1019.3
20260831150511 80 212 3.5 5.2 0.00 0.00 0.00 75 1019.3
20260831150027 80 234 1.7 7.8 0.00 0.00 0.00 76 1019.3
20260831145515 80 215 2.6 7.8 0.00 0.00 0.00 76 1019.2
20260831145014 79 242 2.6 5.2 0.00 0.00 0.00 76 1019.2
20260831144531 79 191 2.6 6.1 0.00 0.00 0.00 76 1019.2
20260831144012 79 225 1.7 6.1 0.00 0.00 0.00 76 1019.2
20260831143507 79 219 1.7 5.2 0.00 0.00 0.00 77 1019.2
20260831143015 79 192 2.6 5.2 0.00 0.00 0.00 77 1019.1
20260831142504 79 202 2.6 5.2 0.00 0.00 0.00 77 1019.0
20260831142006 79 254 2.6 4.3 0.00 0.00 0.00 77 1019.1
20260831141517 79 193 1.7 6.1 0.00 0.00 0.00 77 1019.0
20260831141008 78 184 3.5 6.1 0.00 0.00 0.00 76 1018.9
20260831140514 78 194 2.6 5.2 0.00 0.00 0.00 76 1018.9
20260831140033 78 215 2.6 5.2 0.00 0.00 0.00 78 1018.9
20260831135513 78 101 1.7 3.5 0.00 0.00 0.00 76 1018.9
20260831135015 77 182 1.7 4.3 0.00 0.00 0.00 77 1018.9
20260831134528 77 214 1.7 4.3 0.00 0.00 0.00 76 1018.9
20260831134015 77 211 1.7 4.3 0.00 0.00 0.00 76 1018.9
20260831133513 77 227 2.6 4.3 0.00 0.00 0.00 76 1018.9
20260831133034 77 190 2.6 6.1 0.00 0.00 0.00 75 1019.0
20260831132505 77 241 2.6 6.1 0.00 0.00 0.00 75 1019.0
20260831132006 77 205 2.6 5.2 0.00 0.00 0.00 75 1019.0
20260831131514 77 233 2.6 4.3 0.00 0.00 0.00 76 1018.9
20260831131009 76 226 1.7 4.3 0.00 0.00 0.00 76 1018.8
20260831130510 76 212 2.6 5.2 0.00 0.00 0.00 76 1018.8
20260831130023 76 194 1.7 5.2 0.00 0.00 0.00 77 1018.7
20260831125512 75 211 1.7 3.5 0.00 0.00 0.00 80 1018.7
20260831125013 74 195 1.7 3.5 0.00 0.00 0.00 81 1018.7
20260831124527 73 204 1.7 2.6 0.00 0.00 0.00 81 1018.7
20260831124015 73 197 1.7 3.5 0.00 0.00 0.00 81 1018.8
20260831123515 73 210 1.7 3.5 0.00 0.00 0.00 81 1018.7
20260831123030 73 183 1.7 3.5 0.00 0.00 0.00 81 1018.7
20260831122521 73 207 1.7 2.6 0.00 0.00 0.00 81 1018.7
20260831122015 73 193 0.9 3.5 0.00 0.00 0.00 82 1018.7
20260831121512 72 165 1.7 4.3 0.00 0.00 0.00 82 1018.6
20260831121006 72 203 1.7 4.3 0.00 0.00 0.00 82 1018.6
20260831120508 72 171 0.9 4.3 0.00 0.00 0.00 83 1018.7
20260831120018 72 188 1.7 3.5 0.00 0.00 0.00 83 1018.6
20260831115509 71 178 0.9 3.5 0.00 0.00 0.00 83 1018.6
20260831115012 71 198 0.9 3.5 0.00 0.00 0.00 83 1018.5
20260831114531 71 191 0.9 3.5 0.00 0.00 0.00 83 1018.5
20260831114013 71 198 0.9 2.6 0.00 0.00 0.00 83 1018.5
20260831113518 71 202 0.9 4.3 0.00 0.00 0.00 83 1018.5
20260831113030 71 200 1.7 4.3 0.00 0.00 0.00 83 1018.5
20260831112517 71 200 0.9 4.3 0.00 0.00 0.00 83 1018.6
20260831112017 71 205 1.7 4.3 0.00 0.00 0.00 83 1018.6
20260831111533 71 194 0.9 2.6 0.00 0.00 0.00 83 1018.5
20260831111015 71 185 0.9 2.6 0.00 0.00 0.00 83 1018.4
20260831110510 71 208 1.7 2.6 0.00 0.00 0.00 83 1018.5
20260831110014 72 191 1.7 2.6 0.00 0.00 0.00 83 1018.5
20260831105510 72 200 0.9 1.7 0.00 0.00 0.00 83 1018.4
20260831105010 72 199 0.9 1.7 0.00 0.00 0.00 83 1018.4
20260831104526 72 207 0.9 2.6 0.00 0.00 0.00 83 1018.4
20260831104013 72 202 0.9 2.6 0.00 0.00 0.00 83 1018.4
20260831103513 72 209 0.9 2.6 0.00 0.00 0.00 83 1018.2
20260831103027 71 186 1.7 2.6 0.00 0.00 0.00 84 1018.2
20260831102513 71 202 0.0 1.7 0.00 0.00 0.00 84 1018.2
20260831102017 71 198 0.0 1.7 0.00 0.00 0.00 85 1018.2
20260831101532 71 198 0.0 1.7 0.00 0.00 0.00 85 1018.1
20260831101017 71 198 0.0 1.7 0.00 0.00 0.00 85 1018.1
20260831100517 71 198 0.9 2.6 0.00 0.00 0.00 85 1018.0
20260831100037 71 198 0.0 2.6 0.00 0.00 0.00 85 1018.0
20260831095504 71 184 0.0 1.7 0.00 0.00 0.00 85 1017.9
20260831095009 71 178 0.0 1.7 0.00 0.00 0.00 85 1017.8
20260831094518 71 215 0.0 1.7 0.00 0.00 0.00 85 1017.9
20260831094011 71 215 0.0 1.7 0.00 0.00 0.00 85 1017.9
20260831093510 71 215 0.0 1.7 0.00 0.00 0.00 85 1018.0
20260831093031 71 215 0.0 1.7 0.00 0.00 0.00 85 1018.1
20260831092516 71 215 0.0 1.7 0.00 0.00 0.00 85 1018.0
20260831092013 71 213 0.0 1.7 0.00 0.00 0.00 85 1018.0
20260831091533 71 211 0.9 1.7 0.00 0.00 0.00 85 1018.0
20260831091014 71 211 0.0 1.7 0.00 0.00 0.00 85 1018.0
20260831090518 71 211 0.9 1.7 0.00 0.00 0.00 85 1018.1
20260831090034 71 192 0.9 1.7 0.00 0.00 0.00 85 1018.1
20260831085519 71 157 0.0 1.7 0.00 0.00 0.00 84 1018.1
20260831085015 72 157 0.0 1.7 0.00 0.00 0.00 85 1018.1
20260831084524 72 157 0.0 1.7 0.00 0.00 0.00 84 1018.1
20260831084009 72 137 0.0 1.7 0.00 0.00 0.00 84 1018.1
20260831083512 72 137 0.0 1.7 0.00 0.00 0.00 84 1018.1
20260831083003 71 137 0.9 1.7 0.00 0.00 0.00 85 1018.1
20260831082503 71 137 0.0 0.9 0.00 0.00 0.00 85 1018.1
20260831082003 71 137 0.0 1.7 0.00 0.00 0.00 86 1018.2
20260831081504 71 137 0.0 1.7 0.00 0.00 0.00 86 1018.1
20260831081004 71 137 0.0 0.0 0.00 0.00 0.00 86 1018.1
20260831080503 71 137 0.0 0.0 0.00 0.00 0.00 85 1018.1
20260831080007 72 137 0.0 0.0 0.00 0.00 0.00 85 1018.0
20260831075505 72 137 0.0 0.0 0.00 0.00 0.00 85 1017.9
20260831075005 72 137 0.0 1.7 0.00 0.00 0.00 84 1018.0
20260831074515 72 137 0.0 1.7 0.00 0.00 0.00 84 1018.0
20260831074009 72 137 0.0 1.7 0.00 0.00 0.00 83 1018.0
20260831073508 72 137 0.0 1.7 0.00 0.00 0.00 83 1018.1
20260831073023 72 137 0.9 1.7 0.00 0.00 0.00 82 1018.1
20260831072511 72 137 0.9 1.7 0.00 0.00 0.00 82 1018.0
20260831072004 72 137 0.9 2.6 0.00 0.00 0.00 82 1018.0
20260831071505 72 137 1.7 2.6 0.00 0.00 0.00 83 1018.0
20260831071002 72 139 1.7 2.6 0.00 0.00 0.00 83 1018.0
20260831070503 72 136 0.9 2.6 0.00 0.00 0.00 83 1018.0
20260831070008 72 142 1.7 2.6 0.00 0.00 0.00 83 1017.9
20260831065505 72 139 1.7 2.6 0.00 0.00 0.00 83 1018.0
20260831065004 72 139 0.9 2.6 0.00 0.00 0.00 83 1018.1
20260831064513 72 139 1.7 2.6 0.00 0.00 0.00 82 1018.1
20260831064007 72 139 0.9 2.6 0.00 0.00 0.00 82 1018.3
20260831063508 73 139 0.9 3.5 0.00 0.00 0.00 81 1018.3
20260831063018 73 137 1.7 3.5 0.00 0.00 0.00 81 1018.3
20260831062512 73 138 1.7 2.6 0.00 0.00 0.00 81 1018.4
20260831062011 73 139 1.7 2.6 0.00 0.00 0.00 81 1018.5
20260831061523 73 147 1.7 2.6 0.00 0.00 0.00 81 1018.5
20260831061004 73 141 1.7 2.6 0.00 0.00 0.00 81 1018.5
20260831060503 73 135 0.9 2.6 0.00 0.00 0.00 81 1018.5
20260831060005 73 140 0.9 1.7 0.00 0.00 0.00 80 1018.4
20260831055505 73 145 0.9 1.7 0.00 0.00 0.00 81 1018.5
20260831055003 73 145 0.9 1.7 0.00 0.00 0.00 81 1018.5
20260831054511 73 157 0.9 2.6 0.00 0.00 0.00 80 1018.5
20260831054004 73 157 0.9 2.6 0.00 0.00 0.00 81 1018.4
20260831053508 73 140 1.7 3.5 0.00 0.00 0.00 81 1018.5
20260831053014 73 134 1.7 3.5 0.00 0.00 0.00 81 1018.5
20260831052508 73 134 2.6 2.6 0.00 0.00 0.00 81 1018.5
20260831052011 73 140 1.7 2.6 0.00 0.00 0.00 81 1018.5
20260831051535 73 139 1.7 3.5 0.00 0.00 0.00 81 1018.5
20260831051013 73 136 2.6 3.5 0.00 0.00 0.00 81 1018.4
20260831050514 73 140 2.6 3.5 0.00 0.00 0.00 81 1018.4
20260831050005 73 139 1.7 2.6 0.00 0.00 0.00 82 1018.4
20260831045507 73 139 1.7 1.7 0.00 0.00 0.00 81 1018.5
20260831045003 73 144 0.9 1.7 0.00 0.00 0.00 82 1018.5
20260831044506 73 137 0.9 2.6 0.00 0.00 0.00 81 1018.5
20260831044005 73 137 1.7 2.6 0.00 0.00 0.00 82 1018.5
20260831043502 73 140 1.7 2.6 0.00 0.00 0.00 82 1018.3
20260831043016 73 137 1.7 2.6 0.00 0.00 0.00 82 1018.3
20260831042511 73 140 1.7 2.6 0.00 0.00 0.00 82 1018.3
20260831042011 73 153 0.9 2.6 0.00 0.00 0.00 82 1018.2
20260831041523 73 179 0.0 1.7 0.00 0.00 0.00 83 1018.2
20260831041013 73 179 0.9 0.9 0.00 0.00 0.00 83 1018.1
20260831040514 73 189 0.0 1.7 0.00 0.00 0.00 83 1018.2
20260831040028 73 189 0.0 1.7 0.00 0.00 0.00 82 1018.1
20260831035516 73 189 0.0 2.6 0.00 0.00 0.00 82 1018.1
20260831035005 73 147 1.7 3.5 0.00 0.00 0.00 82 1018.0
20260831034507 73 200 0.9 3.5 0.00 0.00 0.00 83 1018.2
20260831034005 73 190 0.9 2.6 0.00 0.00 0.00 83 1018.1
20260831033505 73 176 0.9 1.7 0.00 0.00 0.00 83 1018.1
20260831033017 73 171 0.9 3.5 0.00 0.00 0.00 83 1018.2
20260831032507 73 188 0.9 3.5 0.00 0.00 0.00 83 1018.2
20260831032007 74 190 1.7 3.5 0.00 0.00 0.00 82 1018.3
20260831031516 74 165 0.9 1.7 0.00 0.00 0.00 80 1018.3
20260831031013 74 155 0.9 2.6 0.00 0.00 0.00 80 1018.3
20260831030514 74 158 0.0 2.6 0.00 0.00 0.00 80 1018.4
20260831030026 74 167 0.0 3.5 0.00 0.00 0.00 80 1018.4
20260831025511 74 148 1.7 3.5 0.00 0.00 0.00 81 1018.4
20260831025015 74 140 1.7 5.2 0.00 0.00 0.00 81 1018.5
20260831024530 74 150 2.6 4.3 0.00 0.00 0.00 82 1018.4
20260831024003 74 134 1.7 2.6 0.00 0.00 0.00 82 1018.4
20260831023505 73 146 1.7 2.6 0.00 0.00 0.00 83 1018.4
20260831023011 73 142 1.7 2.6 0.00 0.00 0.00 84 1018.4
20260831022506 73 141 0.9 1.7 0.00 0.00 0.00 84 1018.5
20260831022007 73 144 0.0 0.9 0.00 0.00 0.00 85 1018.5
20260831021514 73 144 0.0 0.9 0.00 0.00 0.00 85 1018.6
20260831021014 73 144 0.9 0.9 0.00 0.00 0.00 85 1018.6
20260831020510 73 144 0.9 1.7 0.00 0.00 0.00 85 1018.5
20260831020020 73 144 0.9 1.7 0.00 0.00 0.00 85 1018.6
20260831015513 73 144 0.9 1.7 0.00 0.00 0.00 85 1018.6
20260831015014 73 144 0.9 1.7 0.00 0.00 0.00 85 1018.5
20260831014526 73 140 0.9 2.6 0.00 0.00 0.00 86 1018.4
20260831014015 73 139 1.7 3.5 0.00 0.00 0.00 86 1018.4
20260831013517 73 142 1.7 3.5 0.00 0.00 0.00 86 1018.3
20260831013008 73 138 2.6 2.6 0.00 0.00 0.00 85 1018.3
20260831012503 73 142 0.9 1.7 0.00 0.00 0.00 85 1018.3
20260831012002 73 142 0.9 1.7 0.00 0.00 0.00 86 1018.3
20260831011512 74 142 0.0 1.7 0.00 0.00 0.00 85 1018.3
20260831011007 74 142 0.0 1.7 0.00 0.00 0.00 85 1018.2
20260831010508 74 142 0.0 0.9 0.00 0.00 0.00 85 1018.1
20260831010017 74 142 0.9 0.9 0.00 0.00 0.00 85 1018.0
20260831005512 74 142 0.9 0.9 0.00 0.00 0.00 85 1018.1
20260831005012 74 142 0.9 0.9 0.00 0.00 0.00 85 1018.1
20260831004529 74 142 0.9 1.7 0.00 0.00 0.00 86 1018.1
20260831004014 74 142 0.9 1.7 0.00 0.00 0.00 86 1018.0
20260831003514 74 146 1.7 1.7 0.00 0.00 0.00 86 1018.1
20260831003036 74 163 0.9 1.7 0.00 0.00 0.00 1018.0
20260831002514 75 163 0.9 2.6 0.00 0.00 0.00 84 1018.0
20260831002003 75 167 0.9 2.6 0.00 0.00 0.00 84 1017.9
20260831001514 76 167 0.0 0.9 0.00 0.00 0.00 84 1018.0
20260831001010 76 167 0.9 0.9 0.00 0.00 0.00 82 1018.1
20260831000507 77 167 0.9 2.6 0.00 0.00 0.00 80 1018.2
20260831000019 77 167 0.9 2.6 0.00 0.00 0.00 80 1018.2
20260830235510 78 259 0.0 1.7 0.00 0.00 0.00 79 1018.3
20260830235013 78 284 0.0 0.0 0.00 0.00 0.00 76 1018.4
20260830234535 79 284 0.0 0.0 0.00 0.00 0.00 76 1018.5
20260830234013 79 284 0.0 0.0 0.00 0.00 0.00 76 1018.4
20260830233515 80 284 0.0 0.0 0.00 0.00 0.00 77 1018.4
20260830233028 80 284 0.0 0.0 0.00 0.00 0.00 74 1018.4
20260830232516 80 284 0.0 0.9 0.00 0.00 0.00 72 1018.4